This demonstration page uses our WeatherBlox Daily Observations layout. Learn more.

41.55636, -103.73856

Hourly Observations for June 9, 2017

Temp ( °F °C ) Dew Point ( °F °C ) Humidity (%) Winds ( mph kmh ) Pressure ( in mb ) Visibility ( mi km ) Precip ( " mm )
12:53 am 00:53 Clear 65 18.3 56 13.3 73 73 E 12 19 29.68 1005 10 16.0934 0 0
1:53 am 01:53 Clear 65 18.3 56 13.3 73 73 ESE 8 13 29.65 1004 10 16.0934 0 0
2:53 am 02:53 Clear 65 18.3 56 13.3 73 73 ESE 9 15 29.64 1004 10 16.0934 0 0
3:53 am 03:53 Clear 62 16.7 55 12.8 78 78 E 9 15 29.63 1003 10 16.0934 0 0
4:53 am 04:53 Clear 60 15.6 55 12.8 84 84 E 7 11 29.63 1004 10 16.0934 0 0
5:53 am 05:53 Sunny 60 15.6 55 12.8 84 84 E 9 15 29.64 1004 10 16.0934 0 0
6:53 am 06:53 Sunny 64 17.8 57 13.9 78 78 ESE 7 11 29.64 1004 10 16.0934 0 0
7:53 am 07:53 Sunny 69 20.6 58 14.4 68 68 SE 3 6 29.64 1004 10 16.0934 0 0
8:53 am 08:53 Sunny 76 24.4 56 13.3 50 50 Calm 29.63 1003 10 16.0934 0 0
9:53 am 09:53 Sunny 85 29.4 41 5 21 21 W 9 15 29.62 1003 10 16.0934 0 0
10:53 am 10:53 Sunny 91 32.8 34 1.1 13 13 WNW 13 20 29.6 1002 10 16.0934 0 0
11:53 am 11:53 Sunny 89 31.7 25 -3.9 10 10 W 17 28 29.6 1002 10 16.0934 0 0
12:53 pm 12:53 Sunny 87 30.6 32 0 14 14 WSW 14 22 29.59 1002 10 16.0934 0 0
1:53 pm 13:53 Sunny 91 32.8 29 -1.7 11 11 W 18 30 29.56 1001 10 16.0934 0 0
2:53 pm 14:53 Sunny 92 33.3 30 -1.1 11 11 WNW 15 24 29.53 1000 10 16.0934 0 0
3:53 pm 15:53 Sunny 94 34.4 32 0 11 11 WSW 12 19 29.5 999 10 16.0934 0 0
4:53 pm 16:53 Sunny 94 34.4 34 1.1 12 12 S 13 20 29.48 998 10 16.0934 0 0
5:53 pm 17:53 Sunny 94 34.4 34 1.1 12 12 S 17 28 29.45 997 10 16.0934 0 0
6:53 pm 18:53 Sunny 88 31.1 46 7.8 23 23 SE 9 15 29.44 997 10 16.0934 0 0
7:53 pm 19:53 Sunny 85 29.4 41 5 21 21 S 13 20 29.42 996 10 16.0934 0 0
8:53 pm 20:53 Clear 81 27.2 40 4.4 23 23 S 12 19 29.41 996 10 16.0934 0 0
9:53 pm 21:53 Clear 71 21.7 43 6.1 36 36 E 8 13 29.4 996 10 16.0934 0 0
10:53 pm 22:53 Clear 73 22.8 44 6.7 35 35 ESE 6 9 29.39 995 10 16.0934 0 0
11:53 pm 23:53 Clear 78 25.6 45 7.2 31 31 SSW 17 28 29.35 994 10 16.0934 0 0

Powered by AerisWeather